Dewpoint
45 46 46 45 47 49 53 57 58 54 53 50 48 50 49 48 47 45 40 39 43 45 42 41 38 37 36 34 34 37 35 32 31 32 33 31 30 28 30 29 31 38 53 56 58
44 44 46 46 45 47 53 55 57 55 54 50 48 51 49 47 44 41 41 43 45 43 41 37 30 33 32 31 33 34 34 33 34 32 31 31 31 30 28 28 32 35 40 56 58
50 44 46 46 43 46 50 55 56 55 53 49 49 51 49 47 39 36 42 41 44 47 46 34 31 28 27 26 27 29 31 32 31 32 32 31 30 28 27 27 28 31 34 49 54
49 48 44 46 45 45 48 53 57 55 52 48 49 50 48 44 28 41 42 44 44 38 34 28 27 26 25 22 22 20 21 22 25 27 25 21 24 20 23 25 29 31 34 35 49
48 48 45 44 45 46 48 52 56 54 51 48 49 49 43 36 38 44 47 44 39 34 28 27 26 25 22 24 23 20 23 26 27 27 25 23 21 20 20 24 28 30 31 31 36
50 47 46 45 45 46 48 51 56 52 49 48 50 48 40 28 43 46 45 43 35 32 30 30 29 29 27 26 24 26 27 26 27 27 28 25 23 22 20 22 23 25 28 31 35
49 47 46 45 45 49 53 55 53 50 48 49 50 45 34 27 36 44 41 36 34 33 33 34 33 29 30 27 30 28 24 24 22 23 23 24 21 21 22 21 21 25 25 29 32
47 47 46 46 46 51 54 53 52 52 49 49 49 44 32 34 38 34 33 33 34 34 33 33 32 31 29 31 29 25 25 20 21 24 25 25 19 20 21 21 20 23 26 29 30
47 46 46 46 47 50 53 51 49 48 48 49 45 41 31 32 30 32 31 32 33 33 34 33 33 31 32 28 24 24 17 21 23 27 27 26 24 26 26 23 21 20 25 28 29
46 46 46 47 50 51 49 48 47 47 47 47 43 32 33 30 28 29 30 32 33 34 34 33 33 30 30 26 15 18 20 22 21 23 24 25 27 28 27 24 21 20 21 24 26
46 47 52 53 51 50 49 46 41 40 40 35 34 31 31 32 32 31 32 32 31 31 29 33 28 24 24 28 25 24 24 24 25 26 26 26 26 27 28 26 22 22 26 29 29
46 51 52 51 51 51 46 39 40 39 32 35 34 32 33 33 31 32 33 31 31 28 31 28 25 27 29 28 27 27 26 24 26 27 26 26 26 27 28 25 24 26 28 33 32
46 49 50 49 47 45 44 43 45 39 28 32 33 34 33 33 32 33 33 34 33 31 31 26 26 32 31 30 28 27 26 26 25 26 29 28 24 25 24 26 27 28 34 37 38
45 49 49 48 44 46 43 46 44 41 24 30 32 34 34 35 34 36 39 37 35 29 31 30 31 31 31 30 28 25 27 28 27 29 22 24 17 23 34 34 27 25 25 32 37
46 46 49 47 44 43 46 47 45 37 4 28 33 37 36 35 35 38 40 37 34 33 32 28 32 32 30 27 29 26 28 28 30 30 28 25 21 26 34 34 36 38 40 36 38
49 49 48 45 45 45 47 45 38 17 12 24 33 32 34 35 36 38 38 40 39 35 34 33 36 35 32 31 29 32 34 33 33 30 21 24 23 28 30 32 35 38 41 42 40
48 47 46 46 41 46 43 37 17 15 21 23 28 33 32 33 34 36 36 35 32 27 26 32 33 35 35 33 36 36 30 23 21 20 20 31 27 29 32 35 39 40 40 45 48
47 45 46 46 45 44 39 24 18 21 22 28 30 30 28 31 32 36 36 33 36 34 29 26 23 33 36 36 32 32 31 26 19 20 24 32 25 28 35 42 43 44 44 45 46
45 44 43 44 45 41 32 21 22 25 28 27 27 26 26 27 28 31 33 30 32 31 29 28 25 32 35 37 37 35 31 34 28 31 23 28 30 34 36 36 40 41 41 43 44
41 41 40 44 45 38 28 25 25 28 31 28 24 25 22 25 25 27 29 32 32 33 34 31 28 31 33 37 37 36 36 29 29 22 18 23 26 26 30 31 36 37 40 41 42
39 34 39 43 41 32 26 27 28 30 33 29 28 25 25 25 26 27 28 32 33 33 33 32 32 28 31 28 28 29 28 27 26 29 22 21 25 33 32 33 36 38 38 38 37
38 30 39 43 30 30 28 30 32 30 33 32 30 28 27 27 27 26 27 29 34 33 30 30 29 26 25 30 30 29 27 26 20 22 24 25 25 35 37 37 37 33 32 33 33
35 35 40 40 26 28 30 29 32 32 32 30 28 29 28 26 25 27 28 31 34 31 29 30 27 23 11 17 26 27 26 27 27 24 23 21 25 30 34 31 32 31 31 30 29
34 27 31 34 35 30 28 26 25 33 32 31 30 29 26 25 28 26 27 30 32 31 33 32 27 24 17 22 27 24 25 26 25 22 24 25 27 28 30 30 30 30 28 25 24
34 31 33 27 28 31 31 29 28 28 31 31 28 30 28 24 26 27 28 29 30 31 30 29 23 25 25 26 26 23 24 26 24 24 21 25 25 27 29 30 30 29 25 22 21
35 33 33 31 30 29 31 28 27 29 30 29 29 30 30 28 29 26 29 28 28 29 28 29 23 26 23 22 21 20 22 25 26 27 26 26 25 27 29 30 29 27 25 23 21
41 37 33 30 29 28 28 30 29 32 32 32 32 31 28 30 32 31 31 30 29 28 28 26 25 24 22 21 20 17 20 23 24 27 27 23 25 28 29 30 31 30 27 23 21
Wind_Speed
9 10 9 10 11 9 11 16 17 13 13 9 5 5 3 1 4 2 2 3 5 2 3 5 5 5 2 2 2 2 5 10 7 6 6 11 12 2 6 11 12 17 8 11 11
8 9 8 8 10 9 10 19 18 15 13 11 8 7 4 2 3 2 6 3 6 2 4 6 5 4 2 2 1 4 5 6 3 4 8 14 12 18 10 14 3 17 25 9 6
10 9 7 7 9 10 11 12 21 16 15 11 8 7 4 3 4 1 4 4 5 6 2 2 5 3 2 1 2 3 6 6 12 13 14 15 15 10 10 8 10 11 13 17 3
8 12 7 7 9 12 11 13 11 21 18 12 9 10 5 1 4 1 4 5 6 7 6 6 6 2 2 1 4 5 6 7 6 8 8 10 8 15 12 17 11 15 9 11 14
11 10 6 6 10 11 10 8 16 21 17 13 11 10 3 4 3 5 9 8 6 6 7 6 5 2 1 3 6 4 5 11 11 12 12 13 11 16 26 13 13 15 12 11 13
13 8 6 6 10 12 14 13 18 21 16 13 13 9 2 6 1 8 8 5 4 5 5 6 3 1 2 1 1 5 10 14 10 16 11 14 19 10 14 14 19 16 22 16 13
11 8 4 6 11 17 7 13 23 16 13 14 13 3 7 6 2 9 8 3 3 6 9 8 5 4 1 3 5 7 12 18 15 12 11 8 24 26 19 21 23 18 21 20 16
7 2 3 7 8 16 24 28 24 17 13 13 9 3 5 3 8 9 4 6 7 5 5 3 6 2 1 3 6 6 4 7 5 5 7 8 22 18 19 14 27 17 18 18 23
4 3 3 5 8 8 27 25 23 17 15 12 7 5 4 2 6 5 4 6 5 2 1 2 3 1 1 0 3 2 8 9 10 1 6 9 16 17 19 18 27 26 19 15 20
7 4 7 4 2 30 28 21 20 14 10 4 5 6 1 3 5 4 4 3 3 3 2 2 3 0 1 2 6 8 9 10 15 5 19 25 34 25 24 21 25 26 21 16 20
9 10 8 20 31 23 26 17 12 7 4 5 2 5 6 5 4 4 3 4 3 2 3 2 2 9 11 12 6 6 14 21 25 25 22 27 34 31 29 19 23 24 23 19 18
13 17 30 33 34 15 4 6 4 4 10 5 4 6 5 3 3 2 4 3 2 4 2 2 10 13 11 12 12 13 19 25 22 17 10 21 30 32 29 20 23 25 22 19 19
12 16 20 19 10 10 10 7 3 3 8 5 2 2 2 3 1 8 5 2 1 2 5 8 7 7 5 11 14 18 18 20 23 21 19 21 17 12 5 13 14 14 14 13 16
11 16 13 9 9 2 5 4 5 3 7 2 0 2 1 2 4 4 3 2 2 3 2 8 7 10 9 11 11 17 12 19 20 10 7 5 11 9 13 9 10 15 16 16 15
19 11 8 6 9 4 1 3 4 2 6 2 3 2 3 2 9 1 2 4 3 5 4 2 3 6 7 8 7 13 6 13 11 16 7 4 4 7 11 11 13 10 11 15 17
16 16 14 7 6 2 5 3 2 2 6 1 3 2 1 3 5 3 1 2 2 4 7 10 6 4 5 9 15 14 10 12 3 2 5 5 6 2 10 15 16 12 16 12 16
18 18 7 5 3 8 3 3 3 8 2 3 3 5 5 6 7 8 5 4 6 2 5 2 4 4 7 9 5 7 7 5 3 2 6 3 5 5 18 22 9 10 15 15 7
15 14 10 13 11 7 3 4 10 2 3 2 4 5 4 5 5 7 3 3 9 4 3 7 7 4 6 7 5 6 3 3 5 6 6 4 5 5 14 9 8 11 16 15 20
8 6 6 14 13 5 4 9 4 2 2 0 1 1 2 4 3 8 5 5 1 1 3 5 4 6 12 8 7 3 4 3 3 3 4 6 7 4 19 21 20 23 18 9 17
4 4 7 14 10 6 5 6 2 3 2 1 2 3 1 3 1 4 3 2 4 1 3 2 5 8 6 1 10 9 4 2 2 5 5 7 6 11 19 14 13 13 8 15 19
3 4 4 15 2 5 7 4 0 3 0 2 2 2 2 2 4 3 4 1 2 4 3 2 2 6 3 2 6 5 7 3 3 1 4 5 6 9 9 7 7 10 14 16 16
3 3 6 9 5 4 4 2 3 4 3 1 1 2 1 3 4 1 2 2 2 3 2 2 2 7 7 4 4 3 7 3 4 2 4 5 3 11 11 4 3 11 18 20 20
3 2 4 5 5 5 1 2 3 5 4 4 4 3 2 1 1 1 2 3 3 2 1 2 2 8 6 4 7 5 14 6 2 4 2 4 2 6 6 7 11 16 17 17 18
3 5 6 6 2 3 3 2 2 3 3 4 4 4 3 5 5 2 3 2 3 3 3 0 3 3 2 3 5 11 22 13 2 4 4 4 11 4 6 9 9 11 13 16 15
4 3 1 5 7 4 3 1 2 2 3 5 3 9 4 2 2 4 4 6 2 7 1 1 1 3 4 7 4 4 11 14 10 4 1 13 9 9 9 8 6 6 7 9 11
4 4 3 4 7 7 5 1 0 0 3 3 3 7 8 2 0 2 4 4 2 7 5 3 2 1 4 6 5 4 5 7 10 11 9 7 3 5 6 7 6 4 4 5 6
2 2 2 4 3 4 5 5 4 3 0 1 2 4 3 3 4 8 6 10 7 3 3 2 1 1 3 6 6 8 5 2 1 2 9 6 5 9 7 6 4 4 2 4 6
Wind_Direction
292 296 300 316 314 307 306 334 195 190 178 168 172 197 191 61 12 6 268 216 196 283 356 356 11 338 42 49 31 55 236 241 231 221 261 320 333 98 331 339 324 346 345 330 140
285 295 296 306 304 308 306 319 189 180 170 175 163 187 169 85 65 289 250 142 111 89 53 37 32 68 69 50 351 187 220 241 234 313 300 304 309 312 330 335 346 358 347 13 81
303 302 304 294 303 308 312 337 179 179 171 169 165 171 156 109 98 15 136 127 103 83 31 36 40 66 84 21 226 217 234 260 282 288 286 286 296 300 307 290 310 309 327 322 264
263 281 305 329 313 306 302 289 221 170 167 163 163 155 149 120 126 226 146 131 93 56 47 41 33 62 105 270 331 286 283 284 303 324 322 297 306 293 272 271 273 284 270 293 287
246 260 289 322 312 303 295 291 190 161 157 159 155 140 151 87 117 188 128 107 52 49 65 68 61 33 220 331 336 249 311 317 312 303 295 290 280 275 280 271 276 293 286 269 277
275 264 288 328 321 315 287 281 178 147 152 152 141 126 142 94 162 129 124 126 103 48 51 57 93 90 75 336 296 316 302 305 307 297 285 282 282 282 270 301 284 283 287 284 282
272 272 298 338 340 323 238 148 121 123 145 145 133 113 81 109 199 138 135 139 123 63 61 48 64 71 344 289 320 307 310 313 285 275 270 265 270 257 264 267 270 257 268 277 273
261 263 312 359 353 355 130 121 125 133 138 132 103 63 89 6 143 145 126 96 88 70 88 84 70 73 240 326 344 309 301 287 271 292 264 191 258 267 269 245 267 267 261 266 277
83 46 354 2 358 308 111 113 113 124 119 104 65 63 99 29 147 159 139 162 140 108 85 335 82 193 6 188 279 269 281 284 311 327 287 210 287 290 286 242 253 264 260 258 272
71 14 299 187 85 112 111 111 112 94 71 61 77 89 317 175 147 172 207 170 154 123 23 40 49 11 3 189 280 298 311 287 280 261 310 292 285 283 282 252 245 252 256 253 261
58 6 341 137 128 121 118 115 85 69 48 61 311 59 113 104 77 144 142 94 82 120 214 51 332 257 242 232 250 294 281 278 283 287 287 279 278 279 278 248 242 245 249 251 257
65 64 104 119 126 130 116 78 70 153 99 34 74 76 118 174 119 187 104 126 173 222 100 339 266 266 255 246 244 255 274 280 287 280 271 273 273 268 266 242 231 237 249 258 252
95 85 104 112 103 55 80 83 37 74 94 48 42 59 162 153 133 169 140 139 108 263 232 249 250 262 278 266 263 258 262 271 263 295 278 274 280 313 282 219 232 249 253 264 249
131 118 117 119 55 355 46 10 15 33 91 32 84 120 105 67 56 117 87 119 141 275 270 254 268 244 264 261 247 283 250 253 266 286 283 43 300 331 344 298 246 272 288 274 268
120 140 136 11 121 71 50 331 335 62 88 241 103 165 144 156 144 156 108 80 222 227 178 269 227 240 273 249 179 241 296 286 273 294 296 245 219 288 352 351 355 340 336 273 245
95 112 118 77 58 341 314 327 42 47 67 41 117 157 170 207 200 126 166 74 305 249 235 263 299 245 242 274 238 261 306 286 245 290 289 196 191 320 6 318 304 317 330 325 236
69 70 59 38 80 322 339 23 75 64 296 164 180 177 230 204 191 186 200 200 202 299 359 305 265 270 231 282 220 245 272 291 274 257 264 1 188 10 329 304 258 312 328 332 330
73 67 50 45 357 356 45 70 72 204 211 197 162 212 248 171 241 206 233 253 232 265 320 18 15 253 210 229 264 275 214 275 357 17 353 20 5 349 336 15 73 59 57 44 63
341 41 49 351 352 19 79 61 120 204 297 78 91 237 284 248 229 202 200 9 28 136 34 6 286 261 233 218 178 344 295 273 295 287 52 354 7 242 4 36 50 63 61 26 65
19 48 13 339 359 21 74 99 118 229 318 86 34 215 217 329 241 174 15 342 333 343 176 262 292 247 292 185 227 224 220 317 331 2 46 357 25 18 2 27 62 88 112 86 74
48 70 320 337 44 47 77 80 124 284 136 127 69 36 6 328 14 61 350 246 337 316 229 265 238 297 264 236 301 323 318 245 113 120 51 4 22 326 345 25 87 107 77 86 84
53 66 330 349 62 36 50 18 331 347 6 360 225 275 51 17 26 82 353 259 307 293 302 204 251 276 263 281 302 245 318 290 118 99 60 105 12 295 273 279 31 75 71 66 62
55 326 334 6 90 61 29 21 359 16 6 6 352 356 324 333 105 334 349 291 265 287 278 350 336 318 347 21 358 0 341 315 107 112 56 104 186 313 238 89 60 73 68 64 59
61 15 346 40 52 56 84 35 17 334 317 341 312 356 355 21 18 37 347 290 334 310 270 231 72 88 90 262 291 333 342 8 109 87 113 112 153 167 101 96 84 77 74 71 62
45 72 330 352 5 6 350 292 95 359 335 7 353 19 325 332 11 359 340 337 321 338 107 71 51 336 285 278 300 317 352 8 64 131 99 172 164 179 164 156 144 114 90 69 53
50 13 5 318 325 342 347 5 13 135 5 3 38 341 12 84 56 333 347 351 337 329 2 355 209 345 287 326 345 344 4 40 56 80 91 150 183 184 165 153 157 151 117 86 66
125 122 46 334 16 352 326 331 344 359 178 75 331 326 327 316 290 278 273 280 264 301 313 344 158 59 270 345 328 294 237 187 233 267 164 175 225 171 181 189 189 193 153 57 37